TimeEST,TemperatureF,Dew PointF,Humidity,Sea Level PressureIn,VisibilityMPH,Wind Direction,Wind SpeedMPH,Gust SpeedMPH,PrecipitationIn,Events,Conditions,WindDirDegrees,DateUTC
12:00 AM,73.4,71.6,94,30.06,-9999.0,ESE,3.5,-,N/A,,Clear,120,2014-01-31 05:00:00
1:00 AM,74,74,98,30.06,7,ESE,6.9,,,,Scattered Clouds,120,2014-01-31 06:00:00
4:00 AM,74,72,92,30.03,7,SSE,9.2,,,,Scattered Clouds,160,2014-01-31 09:00:00
4:00 AM,73.4,71.6,94,30.03,6.2,SSE,9.2,-,N/A,,Partly Cloudy,160,2014-01-31 09:00:00
5:00 AM,73.4,69.8,88,30.04,6.2,SSE,6.9,-,N/A,,Partly Cloudy,150,2014-01-31 10:00:00
7:00 AM,75,73,92,30.09,8,SSE,3.5,,,,Scattered Clouds,150,2014-01-31 12:00:00
7:00 AM,93.2,73.4,52,30.08,6.2,SSE,3.5,-,N/A,,Partly Cloudy,150,2014-01-31 12:00:00
8:00 AM,75.2,69.8,83,30.10,6.2,SSE,6.9,-,N/A,,Partly Cloudy,160,2014-01-31 13:00:00
9:00 AM,77.0,69.8,78,30.12,6.2,SSE,9.2,-,N/A,,Partly Cloudy,160,2014-01-31 14:00:00
10:00 AM,79,74,82,30.14,8,SE,11.5,,,,Partly Cloudy,130,2014-01-31 15:00:00
10:00 AM,78.8,75.2,89,30.14,6.2,SE,11.5,-,N/A,,Scattered Clouds,130,2014-01-31 15:00:00
11:00 AM,78.8,69.8,74,30.13,6.2,SSE,11.5,-,N/A,,Scattered Clouds,160,2014-01-31 16:00:00
12:00 PM,80.6,69.8,70,30.11,6.2,SE,13.8,-,N/A,,Scattered Clouds,130,2014-01-31 17:00:00
1:00 PM,83,74,69,30.09,9,SE,11.5,,,,Scattered Clouds,130,2014-01-31 18:00:00
1:00 PM,84.2,75.2,74,30.09,6.2,SE,11.5,-,N/A,,Partly Cloudy,130,2014-01-31 18:00:00
2:00 PM,80.6,69.8,70,30.06,6.2,SSE,10.4,-,N/A,,Partly Cloudy,160,2014-01-31 19:00:00
3:00 PM,80.6,68.0,65,30.04,6.2,SSE,11.5,-,N/A,,Partly Cloudy,160,2014-01-31 20:00:00
4:00 PM,82,74,70,30.04,9,SSE,10.4,,,,Scattered Clouds,160,2014-01-31 21:00:00
4:00 PM,82.4,73.4,74,30.04,6.2,SSE,10.4,-,N/A,,Partly Cloudy,160,2014-01-31 21:00:00
5:00 PM,78.8,69.8,74,30.04,6.2,SE,8.1,-,N/A,,Partly Cloudy,130,2014-01-31 22:00:00
6:00 PM,77.0,69.8,78,30.07,6.2,SE,4.6,-,N/A,,Partly Cloudy,130,2014-01-31 23:00:00
7:00 PM,77,74,87,30.07,9,SE,5.8,,,,,130,2014-02-01 00:00:00
7:00 PM,77.0,73.4,89,30.07,-9999.0,SE,5.8,-,N/A,,Clear,130,2014-02-01 00:00:00
8:00 PM,75.2,69.8,83,30.08,-9999.0,East,3.5,-,N/A,,Clear,80,2014-02-01 01:00:00
9:00 PM,75.2,69.8,83,30.08,-9999.0,ESE,3.5,-,N/A,,Clear,120,2014-02-01 02:00:00
10:00 PM,75.2,73.4,94,30.07,-9999.0,East,3.5,-,N/A,,Clear,90,2014-02-01 03:00:00
11:00 PM,73.4,69.8,88,30.13,-9999.0,Variable,1.2,-,N/A,,Clear,0,2014-02-01 04:00:00